This is the latest recevied weather packets stored in our database for station/object K5DLF-13. If no packets are shown the sender has not sent any weather packets the latest 10 day(s).
| Time | Temp. | Humidity | Pressure | Rain* | Wind** | Luminosity | Snow |
|---|---|---|---|---|---|---|---|
| 1777940999 | 23.33° C | 78% | 1008.4 hPa | 0 mm | - | 18 W/m² | - |
| 1777940699 | 23.89° C | 77% | 1008.3 hPa | 0 mm | - | 18 W/m² | - |
| 1777940399 | 23.89° C | 77% | 1008.4 hPa | 0 mm | - | 19 W/m² | - |
| 1777940099 | 23.89° C | 76% | 1008.4 hPa | 0 mm | - | 28 W/m² | - |
| 1777939799 | 23.89° C | 76% | 1008.5 hPa | 0 mm | - | 39 W/m² | - |
| 1777939499 | 24.44° C | 75% | 1008.6 hPa | 0 mm | - | 100 W/m² | - |
| 1777939199 | 24.44° C | 75% | 1008.7 hPa | 0 mm | - | 123 W/m² | - |
| 1777938899 | 24.44° C | 75% | 1008.7 hPa | 0 mm | - | 137 W/m² | - |
| 1777938599 | 24.44° C | 74% | 1008.6 hPa | 0 mm | - | 176 W/m² | - |
| 1777938299 | 24.44° C | 75% | 1008.6 hPa | 0 mm | - | 113 W/m² | - |
| 1777937999 | 24.44° C | 74% | 1008.7 hPa | 0 mm | - | 90 W/m² | - |
| 1777937699 | 25° C | 74% | 1008.7 hPa | 0 mm | - | 67 W/m² | - |
| 1777937399 | 25° C | 74% | 1008.9 hPa | 0 mm | - | 62 W/m² | - |
| 1777937099 | 25° C | 74% | 1008.9 hPa | 0 mm | - | 67 W/m² | - |
| 1777936799 | 25° C | 74% | 1009 hPa | 0 mm | - | 93 W/m² | - |
| 1777936499 | 25° C | 73% | 1009 hPa | 0 mm | - | 130 W/m² | - |
| 1777936199 | 25° C | 74% | 1009 hPa | 0 mm | - | 160 W/m² | - |
| 1777935899 | 25° C | 74% | 1009.2 hPa | 0 mm | - | 151 W/m² | - |
| 1777935599 | 25° C | 74% | 1009.3 hPa | 0 mm | - | 160 W/m² | - |
| 1777935299 | 25° C | 72% | 1009.2 hPa | 0 mm | - | 118 W/m² | - |
| 1777934999 | 25.56° C | 74% | 1009.3 hPa | 0 mm | - | 181 W/m² | - |
| 1777934699 | 25° C | 73% | 1009.2 hPa | 0 mm | - | 169 W/m² | - |
| 1777934399 | 25° C | 73% | 1009.3 hPa | 0 mm | - | 281 W/m² | - |
| 1777934099 | 25° C | 74% | 1009.4 hPa | 0 mm | - | 236 W/m² | - |
| 1777933799 | 25° C | 74% | 1009.5 hPa | 0 mm | - | 248 W/m² | - |
* Rain latest hour (hover to see other rain measurements)
** Current wind speed in m/s (hover to see current wind gust speed)